| time (UTC) | temp F | wind direction | speed MPH | gust MPH | rain 1hr in | rain 24hr in | rain mn in | humidity % | barometer mb |
| 20260506061421 | 45 | 324 | 2.0 | 10.0 | 0.00 | 0.00 | 0.00 | 83 | 1012.5 |
| 20260506060521 | 45 | 324 | 3.0 | 16.0 | 0.00 | 0.00 | 0.00 | 83 | 1012.5 |
| 20260506050221 | 44 | 349 | 2.0 | 12.0 | 0.00 | 0.00 | 0.00 | 84 | 1012.2 |
| 20260506044421 | 44 | 328 | 1.0 | 12.0 | 0.00 | 0.00 | 0.00 | 85 | 1012.2 |
| 20260506043522 | 44 | 12 | 1.0 | 10.0 | 0.00 | 0.00 | 0.00 | 85 | 1012.1 |
| 20260506042622 | 44 | 299 | 2.0 | 8.0 | 0.00 | 0.00 | 0.00 | 85 | 1012.1 |
| 20260506041722 | 44 | 323 | 2.0 | 10.0 | 0.00 | 0.00 | 0.00 | 85 | 1012.2 |
| 20260506040821 | 44 | 306 | 2.0 | 14.0 | 0.00 | 0.00 | 0.00 | 85 | 1012.2 |
| 20260506035922 | 44 | 322 | 2.0 | 8.0 | 0.00 | 0.00 | 0.00 | 85 | 1012.3 |
| 20260506035022 | 44 | 321 | 2.0 | 8.0 | 0.00 | 0.00 | 0.00 | 85 | 1012.2 |
| 20260506034121 | 44 | 315 | 2.0 | 12.0 | 0.00 | 0.00 | 0.00 | 85 | 1012.2 |
| 20260506033221 | 45 | 315 | 2.0 | 12.0 | 0.00 | 0.00 | 0.00 | 85 | 1012.2 |
| 20260506031422 | 45 | 340 | 2.0 | 14.0 | 0.00 | 0.00 | 0.00 | 84 | 1012.3 |
| 20260506030521 | 45 | 341 | 2.0 | 10.0 | 0.00 | 0.00 | 0.00 | 84 | 1012.4 |
| 20260506025621 | 45 | 329 | 2.0 | 12.0 | 0.00 | 0.00 | 0.00 | 84 | 1012.4 |
| 20260506024722 | 45 | 307 | 4.0 | 12.0 | 0.00 | 0.00 | 0.00 | 84 | 1012.4 |
| 20260506023821 | 45 | 327 | 4.0 | 16.0 | 0.00 | 0.00 | 0.00 | 84 | 1012.5 |
| 20260506022921 | 45 | 326 | 5.0 | 16.0 | 0.00 | 0.00 | 0.00 | 84 | 1012.5 |
| 20260506022022 | 45 | 312 | 3.0 | 20.0 | 0.00 | 0.00 | 0.00 | 83 | 1012.5 |
| 20260506014423 | 46 | 321 | 3.0 | 16.0 | 0.00 | 0.00 | 0.00 | 83 | 1012.7 |
| 20260506013521 | 46 | 326 | 2.0 | 16.0 | 0.00 | 0.00 | 0.00 | 82 | 1012.7 |
| 20260506011722 | 46 | 330 | 2.0 | 10.0 | 0.00 | 0.00 | 0.00 | 82 | 1012.8 |
| 20260506010821 | 46 | 319 | 2.0 | 10.0 | 0.00 | 0.00 | 0.00 | 82 | 1012.8 |
| 20260506005021 | 46 | 326 | 2.0 | 14.0 | 0.00 | 0.00 | 0.00 | 82 | 1012.8 |
| 20260506004121 | 47 | 342 | 2.0 | 14.0 | 0.00 | 0.00 | 0.00 | 81 | 1012.9 |
| 20260506003223 | 47 | 323 | 2.0 | 12.0 | 0.00 | 0.00 | 0.00 | 81 | 1012.8 |
| 20260506002322 | 47 | 328 | 2.0 | 14.0 | 0.00 | 0.00 | 0.00 | 81 | 1013.0 |
| 20260506001421 | 47 | 325 | 2.0 | 16.0 | 0.00 | 0.00 | 0.00 | 81 | 1013.0 |
| 20260506000522 | 47 | 316 | 2.0 | 14.0 | 0.00 | 0.00 | 0.00 | 81 | 1013.0 |
| 20260505235621 | 47 | 340 | 2.0 | 12.0 | 0.00 | 0.00 | 0.00 | 80 | 1012.9 |
| 20260505232922 | 48 | 358 | 2.0 | 16.0 | 0.00 | 0.00 | 0.00 | 82 | 1013.0 |
| 20260505232021 | 48 | 334 | 2.0 | 14.0 | 0.00 | 0.00 | 0.00 | 84 | 1013.0 |
| 20260505231121 | 48 | 346 | 2.0 | 16.0 | 0.00 | 0.00 | 0.00 | 83 | 1013.0 |
| 20260505230221 | 48 | 337 | 2.0 | 14.0 | 0.00 | 0.00 | 0.00 | 83 | 1013.1 |
| 20260505224422 | 48 | 320 | 2.0 | 6.0 | 0.00 | 0.00 | 0.00 | 81 | 1013.1 |
| 20260505223521 | 48 | 4 | 2.0 | 12.0 | 0.00 | 0.00 | 0.00 | 80 | 1013.2 |
| 20260505221721 | 49 | 347 | 4.0 | 16.0 | 0.00 | 0.00 | 0.00 | 79 | 1012.9 |
| 20260505220822 | 49 | 354 | 4.0 | 20.0 | 0.00 | 0.00 | 0.00 | 78 | 1012.9 |
| 20260505215922 | 49 | 326 | 4.0 | 20.0 | 0.00 | 0.00 | 0.00 | 78 | 1013.0 |
| 20260505215021 | 49 | 318 | 4.0 | 16.0 | 0.00 | 0.00 | 0.00 | 77 | 1013.0 |
| 20260505214121 | 49 | 309 | 5.0 | 16.0 | 0.00 | 0.00 | 0.00 | 78 | 1013.0 |
| 20260505212322 | 50 | 329 | 2.0 | 16.0 | 0.00 | 0.00 | 0.00 | 80 | 1012.8 |
| 20260505211421 | 50 | 359 | 4.0 | 16.0 | 0.00 | 0.00 | 0.00 | 81 | 1012.9 |
| 20260505210521 | 50 | 356 | 4.0 | 24.0 | 0.00 | 0.00 | 0.00 | 81 | 1012.9 |
| 20260505205621 | 51 | 351 | 4.0 | 24.0 | 0.00 | 0.00 | 0.00 | 81 | 1012.8 |
| 20260505204721 | 51 | 358 | 5.0 | 16.0 | 0.00 | 0.00 | 0.00 | 81 | 1012.8 |
| 20260505203822 | 51 | 5 | 5.0 | 18.0 | 0.00 | 0.00 | 0.00 | 81 | 1012.7 |
| 20260505202921 | 51 | 19 | 4.0 | 20.0 | 0.00 | 0.00 | 0.00 | 81 | 1012.6 |
| 20260505202023 | 51 | 12 | 5.0 | 20.0 | 0.00 | 0.00 | 0.00 | 82 | 1012.5 |
| 20260505201121 | 51 | 16 | 6.0 | 20.0 | 0.00 | 0.00 | 0.00 | 82 | 1012.4 |
| 20260505200222 | 51 | 23 | 4.0 | 16.0 | 0.00 | 0.00 | 0.00 | 81 | 1012.4 |
| 20260505195321 | 52 | 22 | 5.0 | 18.0 | 0.00 | 0.00 | 0.00 | 81 | 1012.3 |
| 20260505194421 | 52 | 9 | 5.0 | 22.0 | 0.00 | 0.00 | 0.00 | 81 | 1012.1 |
| 20260505192623 | 52 | 24 | 6.0 | 24.0 | 0.00 | 0.00 | 0.00 | 80 | 1012.0 |
| 20260505191721 | 52 | 14 | 6.0 | 22.0 | 0.00 | 0.00 | 0.00 | 79 | 1011.8 |
| 20260505190821 | 53 | 21 | 5.0 | 22.0 | 0.00 | 0.00 | 0.00 | 78 | 1011.8 |
| 20260505185921 | 53 | 20 | 4.0 | 22.0 | 0.00 | 0.00 | 0.00 | 77 | 1011.8 |
| 20260505185021 | 53 | 22 | 5.0 | 16.0 | 0.00 | 0.00 | 0.00 | 77 | 1011.6 |
| 20260505184122 | 54 | 21 | 4.0 | 26.0 | 0.00 | 0.00 | 0.00 | 76 | 1011.6 |
| 20260505183223 | 55 | 25 | 5.0 | 14.0 | 0.00 | 0.00 | 0.00 | 76 | 1011.5 |
| 20260505182322 | 55 | 8 | 4.0 | 22.0 | 0.00 | 0.00 | 0.00 | 75 | 1011.4 |
| 20260505181422 | 56 | 22 | 3.0 | 18.0 | 0.00 | 0.00 | 0.00 | 75 | 1011.4 |
| 20260505180522 | 56 | 339 | 3.0 | 10.0 | 0.00 | 0.00 | 0.00 | 73 | 1011.3 |
| 20260505174721 | 57 | 6 | 4.0 | 18.0 | 0.00 | 0.00 | 0.00 | 70 | 1011.2 |
| 20260505173821 | 58 | 340 | 3.0 | 20.0 | 0.00 | 0.00 | 0.00 | 69 | 1011.2 |
| 20260505172921 | 59 | 11 | 3.0 | 18.0 | 0.00 | 0.00 | 0.00 | 70 | 1011.3 |
| 20260505172021 | 59 | 348 | 4.0 | 18.0 | 0.00 | 0.00 | 0.00 | 70 | 1011.2 |
| 20260505165321 | 59 | 344 | 5.0 | 18.0 | 0.00 | 0.00 | 0.00 | 61 | 1011.2 |
| 20260505164422 | 59 | 346 | 4.0 | 18.0 | 0.00 | 0.00 | 0.00 | 61 | 1011.1 |
| 20260505163521 | 59 | 343 | 4.0 | 18.0 | 0.00 | 0.00 | 0.00 | 62 | 1011.1 |
| 20260505162621 | 60 | 321 | 4.0 | 14.0 | 0.00 | 0.00 | 0.00 | 61 | 1011.1 |
| 20260505161721 | 60 | 315 | 4.0 | 14.0 | 0.00 | 0.00 | 0.00 | 61 | 1011.1 |
| 20260505160822 | 60 | 323 | 2.0 | 16.0 | 0.00 | 0.00 | 0.00 | 60 | 1011.1 |
| 20260505153221 | 60 | 311 | 3.0 | 12.0 | 0.00 | 0.00 | 0.00 | 61 | 1011.1 |
| 20260505152322 | 59 | 314 | 4.0 | 10.0 | 0.00 | 0.00 | 0.00 | 62 | 1011.2 |
| 20260505151421 | 59 | 322 | 3.0 | 12.0 | 0.00 | 0.00 | 0.00 | 62 | 1011.2 |
| 20260505150521 | 59 | 312 | 2.0 | 12.0 | 0.00 | 0.00 | 0.00 | 62 | 1011.2 |
| 20260505140221 | 61 | 339 | 2.0 | 14.0 | 0.00 | 0.00 | 0.00 | 59 | 1011.3 |
| 20260505125021 | 62 | 317 | 2.0 | 8.0 | 0.00 | 0.00 | 0.00 | 59 | 1011.5 |
| 20260505124123 | 63 | 330 | 1.0 | 8.0 | 0.00 | 0.00 | 0.00 | 58 | 1011.5 |
| 20260505123222 | 63 | 11 | 1.0 | 12.0 | 0.00 | 0.00 | 0.00 | 59 | 1011.4 |
| 20260505122323 | 63 | 0 | 0.0 | 8.0 | 0.00 | 0.00 | 0.00 | 59 | 1011.5 |
| 20260505121422 | 60 | 0 | 0.0 | 8.0 | 0.00 | 0.00 | 0.00 | 64 | 1011.6 |
| 20260505120521 | 59 | 314 | 2.0 | 6.0 | 0.00 | 0.00 | 0.00 | 65 | 1011.6 |
| 20260505115622 | 59 | 314 | 1.0 | 10.0 | 0.00 | 0.00 | 0.00 | 66 | 1011.7 |
| 20260505114721 | 59 | 310 | 2.0 | 10.0 | 0.00 | 0.00 | 0.00 | 66 | 1011.7 |
| 20260505113822 | 60 | 322 | 1.0 | 12.0 | 0.00 | 0.00 | 0.00 | 65 | 1011.7 |
| 20260505112921 | 60 | 0 | 0.0 | 8.0 | 0.00 | 0.00 | 0.00 | 67 | 1011.7 |
| 20260505112021 | 59 | 0 | 0.0 | 4.0 | 0.00 | 0.00 | 0.00 | 66 | 1011.8 |
| 20260505110222 | 58 | 0 | 0.0 | 4.0 | 0.00 | 0.00 | 0.00 | 69 | 1012.0 |
| 20260505101721 | 58 | 0 | 0.0 | 4.0 | 0.00 | 0.00 | 0.00 | 71 | 1012.2 |
| 20260505100821 | 58 | 315 | 1.0 | 4.0 | 0.00 | 0.00 | 0.00 | 71 | 1012.2 |
| 20260505095921 | 58 | 9 | 1.0 | 8.0 | 0.00 | 0.00 | 0.00 | 71 | 1012.3 |
| 20260505095022 | 58 | 0 | 0.0 | 6.0 | 0.00 | 0.00 | 0.00 | 73 | 1012.3 |
| 20260505094121 | 57 | 0 | 0.0 | 6.0 | 0.00 | 0.00 | 0.00 | 74 | 1012.4 |
| 20260505093221 | 56 | 0 | 0.0 | 4.0 | 0.00 | 0.00 | 0.00 | 75 | 1012.4 |
| 20260505091421 | 55 | 341 | 1.0 | 8.0 | 0.00 | 0.00 | 0.00 | 78 | 1012.4 |
| 20260505090521 | 55 | 15 | 0.0 | 10.0 | 0.00 | 0.00 | 0.00 | 79 | 1012.5 |
| 20260505084721 | 54 | 0 | 0.0 | 8.0 | 0.00 | 0.00 | 0.00 | 82 | 1012.6 |
| 20260505083821 | 54 | 0 | 0.0 | 4.0 | 0.00 | 0.00 | 0.00 | 83 | 1012.6 |
| 20260505081122 | 53 | 0 | 0.0 | 6.0 | 0.00 | 0.00 | 0.00 | 86 | 1012.6 |
| 20260505080222 | 52 | 0 | 0.0 | 4.0 | 0.00 | 0.00 | 0.00 | 86 | 1012.6 |
| 20260505074421 | 52 | 0 | 0.0 | 2.0 | 0.00 | 0.00 | 0.00 | 87 | 1012.5 |
| 20260505073522 | 51 | 0 | 0.0 | 4.0 | 0.00 | 0.00 | 0.00 | 88 | 1012.5 |
| 20260505072621 | 51 | 315 | 0.0 | 8.0 | 0.00 | 0.00 | 0.00 | 87 | 1012.5 |
| 20260505071721 | 52 | 0 | 0.0 | 4.0 | 0.00 | 0.00 | 0.00 | 87 | 1012.6 |
| 20260505070821 | 52 | 0 | 0.0 | 4.0 | 0.00 | 0.00 | 0.00 | 87 | 1012.6 |
| 20260505065922 | 53 | 0 | 0.0 | 4.0 | 0.00 | 0.00 | 0.00 | 86 | 1012.7 |
| 20260505065021 | 53 | 0 | 0.0 | 6.0 | 0.00 | 0.00 | 0.00 | 86 | 1012.7 |
| 20260505064122 | 53 | 0 | 0.0 | 0.0 | 0.00 | 0.00 | 0.00 | 86 | 1012.7 |
| 20260505063221 | 53 | 0 | 0.0 | 0.0 | 0.00 | 0.00 | 0.00 | 87 | 1012.8 |
| 20260505062321 | 53 | 0 | 0.0 | 0.0 | 0.00 | 0.00 | 0.00 | 89 | 1012.7 |